{"data":{"norad_id":47430,"epoch":"2026-06-28T19:36:27.197280Z","epoch_age_seconds":7309336,"freshness":"OLD","line1":"1 47430U 21006T   26179.81698145  .05040908  23401-5  19512-2 0  9995","line2":"2 47430  97.2027 249.7266 0015329 265.1088  94.8453 16.23711460301821","mean_motion":16.2371146,"eccentricity":0.0015329,"inclination_deg":97.2027,"raan_deg":249.7266,"arg_perigee_deg":265.1088,"mean_anomaly_deg":94.8453,"bstar":0.0019512,"rev_number":30182,"period_min":88.68570774268,"perigee_km":199.39591348412,"apogee_km":219.59227288962,"semimajor_km":6587.6310931869,"source":"CELESTRAK","updated_at":"2026-07-01T09:00:19.440409Z"}}